Powrót do katalogu

FENGYUN 1C DEB

AktywnyPO
NORAD 31992·DEBRIS·🇨🇳 China

Wystrzelony May 10, 1999 z Taiyuan Satellite Launch Center

Loading…

Następne Przeloty (najbliższe 24 godziny)

TLE

NieaktualneSource: Space-Track

Epoka: Aug 17, 2026, 02:33 UTC

1 31992U 99025CPV 26229.10640756  .00000352  00000-0  42095-3 0  9992
2 31992  99.1865 165.4612 0538933 150.2367 213.0596 13.23308731571464

Śledź FENGYUN 1C DEB w czasie rzeczywistym z AllMySat

Download on the App Store